Location: Newark
(35.9031°N, 139.7175°E)
Time: 03:53:24
(UTC+00:00)

Vanguard 1 Rocket - All Passes

Search period start: 28 May 2020 00:00
Search period end: 07 June 2020 00:00
Orbit: 653 x 4224 km, 34.3° (Epoch: 26 May)

Date Brightness Start Highest point End Pass type
(mag) Time Alt. Az. Time Alt. Az. Time Alt. Az.
28 May - 12:17:30 10° SSW 12:35:19 27° SE 12:47:45 10° E visible
28 May - 14:45:02 10° SW 15:04:51 55° SSE 15:15:20 10° E visible
28 May - 17:17:48 10° WSW 17:32:35 80° S 17:39:53 10° E visible
28 May - 19:49:38 10° W 19:58:30 63° SSW 20:03:37 10° ESE daylight
28 May - 22:19:42 10° WSW 22:22:24 14° SW 22:24:48 10° S daylight
29 May - 11:07:37 10° S 11:21:32 18° SE 11:32:49 10° ESE visible
29 May - 13:30:43 10° SW 13:51:42 45° SSE 14:04:01 10° E visible
29 May - 16:02:20 10° WSW 16:20:28 73° SSE 16:29:23 10° E visible
29 May - 18:35:33 10° W 18:47:21 79° S 18:53:28 10° ESE visible
29 May - 21:06:04 10° W 21:12:05 30° SSW 21:16:17 10° SSE daylight
30 May - 12:17:36 10° SSW 12:38:05 34° SSE 12:51:50 10° E visible
30 May - 14:46:52 10° SW 15:07:46 64° SSE 15:18:38 10° E visible
30 May - 17:20:31 10° W 17:35:42 83° S 17:43:09 10° E visible
30 May - 19:52:35 10° W 20:01:31 53° SSW 20:06:42 10° SE daylight
31 May - 11:06:19 10° S 11:24:13 25° SE 11:38:07 10° E visible
31 May - 13:32:01 10° SW 13:54:30 53° SSE 14:07:25 10° E visible
31 May - 16:04:48 10° WSW 16:23:29 79° S 16:32:38 10° E visible
31 May - 18:38:23 10° W 18:50:27 73° SSW 18:56:40 10° ESE visible
31 May - 21:09:28 10° W 21:14:51 23° SW 21:18:46 10° SSE daylight
01 Jun - 09:58:28 10° SSE 10:10:19 15° SE 10:20:54 10° ESE visible
01 Jun - 12:18:18 10° SSW 12:40:45 42° SSE 12:55:32 10° E visible
01 Jun - 14:48:57 10° WSW 15:10:41 71° SSE 15:21:52 10° E visible
01 Jun - 17:23:16 10° W 17:38:48 82° S 17:46:24 10° E visible
01 Jun - 19:55:35 10° W 20:04:26 43° SSW 20:09:38 10° SE daylight
02 Jun - 11:06:08 10° SSW 11:26:46 32° SE 11:42:27 10° E visible
02 Jun - 13:33:40 10° SW 13:57:16 61° SSE 14:10:43 10° E visible
02 Jun - 16:07:22 10° W 16:26:31 83° S 16:35:53 10° E visible
02 Jun - 18:41:13 10° W 18:53:29 66° SSW 18:59:50 10° ESE visible
02 Jun - 21:13:14 10° W 21:17:29 16° SW 21:20:48 10° S daylight
03 Jun - 09:56:16 10° S 10:12:48 21° SE 10:27:12 10° E visible
03 Jun - 12:19:26 10° SW 12:43:22 50° SSE 12:58:57 10° E visible
03 Jun - 14:51:15 10° WSW 15:13:36 77° SSE 15:25:05 10° E visible
03 Jun - 17:26:01 10° W 17:41:52 80° S 17:49:38 10° ESE visible
03 Jun - 19:58:38 10° W 20:07:13 35° SW 20:12:24 10° SSE daylight
04 Jun - 08:52:38 10° SE 08:59:01 11° SE 09:05:13 10° ESE daylight
04 Jun - 11:06:38 10° SSW 11:29:12 39° SE 11:46:16 10° E visible
04 Jun - 13:35:35 10° WSW 14:00:02 69° SSE 14:13:55 10° E visible
04 Jun - 16:10:01 10° W 16:29:34 84° S 16:39:07 10° E visible
04 Jun - 18:44:03 10° W 18:56:25 57° SSW 19:02:53 10° SE visible
04 Jun - 21:18:05 10° WSW 21:20:00 11° SW 21:21:43 10° SSW daylight
05 Jun - 09:55:41 10° S 10:15:07 28° SE 10:31:58 10° E visible
05 Jun - 12:20:57 10° SW 12:45:56 58° SSE 13:02:13 10° E visible
05 Jun - 14:53:42 10° WSW 15:16:32 82° S 15:28:17 10° E visible
05 Jun - 17:28:45 10° W 17:44:54 75° SSW 17:52:49 10° ESE visible
05 Jun - 20:01:51 10° W 20:09:50 27° SW 20:14:55 10° SSE daylight
06 Jun - 08:47:50 10° SSE 09:01:19 17° SE 09:14:21 10° E daylight
06 Jun - 11:07:40 10° SSW 11:31:35 47° SE 11:49:45 10° E visible
06 Jun - 13:37:45 10° WSW 14:02:48 75° SSE 14:17:06 10° E visible
06 Jun - 16:12:42 10° W 16:32:35 83° S 16:42:21 10° E visible
06 Jun - 18:46:53 10° W 18:59:12 48° SSW 19:05:48 10° SE visible
